Regional Weather Roundup
Issued by NWS Charleston, WV

Home | Current Version | Previous Version | Text Only | Print | Product List | Glossary Off
Versions: 1 2 3 4 5 6 7 8 9 10 11 12 13 14 15 16 17 18 19 20 21 22 23 24 25 26 27 28 29 30 31 32 33 34 35 36 37 38 39 40 41 42 43 44 45 46 47 48 49 50

000
ASUS41 KRLX 040710
RWRRLX
West Virginia Regional Weather Roundup
National Weather Service Charleston WV
300 AM EDT TUE AUG 04 2015

Note: "fair" indicates few or no clouds below 12,000 feet with no
significant weather and/or obstructions to visibility.

WVZ003-040800-
Northern Panhandle of West Virginia

CITY           SKY/WX    TMP DP  RH WIND       PRES   REMARKS
WHEELING       CLEAR     66  63  90 NW3       29.90S
$$

WVZ009-040800-
Northwest West Virginia

CITY           SKY/WX    TMP DP  RH WIND       PRES   REMARKS
PARKERSBURG    MOCLDY    71  65  81 CALM      29.94S
$$

WVZ006-040800-
Western West Virginia

CITY           SKY/WX    TMP DP  RH WIND       PRES   REMARKS
HUNTINGTON     CLEAR     65  63  93 CALM      29.93S
$$

WVZ015-040800-
West Central West Virginia

CITY           SKY/WX    TMP DP  RH WIND       PRES   REMARKS
CHARLESTON     PTCLDY    69  59  70 W3        29.94R
$$

WVZ022-031-040800-
North Central West Virginia

CITY           SKY/WX    TMP DP  RH WIND       PRES   REMARKS
CLARKSBURG     PTCLDY    73  67  81 SW6       29.91R
MORGANTOWN     PTCLDY    68  63  84 S3        29.92R
$$

WVZ025-035-042-045-040800-
Southern West Virginia

CITY           SKY/WX    TMP DP  RH WIND       PRES   REMARKS
BECKLEY        MOCLDY    65  58  78 SW8       30.02F
LOGAN            N/A     66  63  88 CALM      29.93F
BLUEFIELD      LGT RAIN  69  59  70 W13       30.08S
LEWISBURG      MOCLDY    73  52  47 SW5       30.00S
$$

WVZ047-040800-
Northern Mountains of West Virginia

CITY           SKY/WX    TMP DP  RH WIND       PRES   REMARKS
ELKINS         MOCLDY    74  62  66 W18G25    29.97R
$$

WVZ052-040800-
Eastern Panhandle of West Virginia

CITY           SKY/WX    TMP DP  RH WIND       PRES   REMARKS
MARTINSBURG    MOCLDY    72  63  73 N3        29.86R
PETERSBURG     CLOUDY    68  64  85 CALM      29.92R THUNDER
$$


USA.gov is the U.S. government's official web portal to all federal, state and local government web resources and services.